This demonstration page uses our WeatherBlox Daily Observations layout. Learn more.

Left ArrowRight Arrow

40.97296, -117.73568

Hourly Observations for July 7, 2022

Temp ( °F °C ) Dew Point ( °F °C ) Humidity (%) Winds ( mph kmh ) Pressure ( in mb ) Visibility ( mi km ) Precip ( " mm )
12:56 am 00:56 Clear 73 22.8 36 2.2 26 26 NW 6 9 29.83 1010 10 16 0.00 0.00
1:56 am 01:56 Clear 71 21.7 36 2.2 28 28 Calm 29.83 1010 10 16 0.00 0.00
2:56 am 02:56 Clear 66 18.9 37 2.8 34 34 WNW 3 6 29.85 1011 10 16 0.00 0.00
3:56 am 03:56 Clear 61 16.1 37 2.8 41 41 Calm 29.87 1011 10 16 0.00 0.00
4:56 am 04:56 Clear 58 14.4 36 2.2 44 44 NNW 3 6 29.88 1012 10 16 0.00 0.00
5:56 am 05:56 Sunny 63 17.2 39 3.9 41 41 NNE 5 7 29.89 1012 10 16 0.00 0.00
6:56 am 06:56 Sunny 67 19.4 38 3.3 35 35 N 6 9 29.90 1013 10 16 0.00 0.00
7:56 am 07:56 Sunny 72 22.2 40 4.4 31 31 VRB 5 7 29.91 1013 10 16 0.00 0.00
8:56 am 08:56 Sunny 77 25 41 5 28 28 WNW 6 9 29.92 1013 10 16 0.00 0.00
9:56 am 09:56 Sunny 79 26.1 36 2.2 21 21 W 15 24 29.92 1013 10 16 0.00 0.00
10:56 am 10:56 Sunny 82 27.8 34 1.1 18 18 VRB 5 7 29.91 1013 10 16 0.00 0.00
11:56 am 11:56 Sunny 84 28.9 35 1.7 17 17 Calm 29.89 1012 10 16 0.00 0.00
12:56 pm 12:56 Sunny 88 31.1 37 2.8 16 16 undefined N/A 29.87 1012 10 16 0.00 0.00
1:56 pm 13:56 Sunny 91 32.8 37 2.8 15 15 undefined N/A 29.85 1011 10 16 0.00 0.00
2:56 pm 14:56 Mostly Sunny 91 32.8 37 2.8 15 15 undefined N/A 29.85 1011 10 16 0.00 0.00
3:56 pm 15:56 Sunny 93 33.9 35 1.7 13 13 SW 20 31 29.83 1010 10 16 0.00 0.00
4:33 pm 16:33 Sunny 93 33.9 34 1.1 12 12 SW 17 28 29.56 1001 10 16 0.00 0.00
4:56 pm 16:56 Sunny 92 33.3 32 0 12 12 SSW 12 19 29.83 1010 10 16 0.00 0.00
5:56 pm 17:56 Sunny 91 32.8 28 -2.2 10 10 WSW 15 24 29.82 1010 10 16 0.00 0.00
6:56 pm 18:56 Sunny 89 31.7 31 -0.6 12 12 WNW 13 20 29.82 1010 10 16 0.00 0.00
7:56 pm 19:56 Sunny 85 29.4 30 -1.1 14 14 NW 13 20 29.83 1010 10 16 0.00 0.00
8:56 pm 20:56 Clear 79 26.1 31 -0.6 17 17 NNE 6 9 29.85 1011 10 16 0.00 0.00
9:56 pm 21:56 Clear 67 19.4 30 -1.1 25 25 W 6 9 29.89 1012 10 16 0.00 0.00
10:56 pm 22:56 Clear 72 22.2 31 -0.6 22 22 W 10 17 29.89 1012 10 16 0.00 0.00
11:56 pm 23:56 Clear 67 19.4 31 -0.6 26 26 NW 6 9 29.90 1013 10 16 0.00 0.00

Powered by AerisWeather